QPF
0.03 0.02 0.02 0.01 0.01 0.01 0.01 0.01 0.01 0.02 0.02 0.02 0.02 0.03 0.02 0.02 0.02 0.01 0.02 0.03 0.03 0.03 0.02 0.02 0.01 0.02 0.04 0.05 0.06 0.06 0.05 0.04 0.04 0.05 0.08 0.10 0.09 0.10
0.01 0.01 0.01 0.01 0.01 0.01 0.00 0.01 0.01 0.01 0.02 0.03 0.04 0.04 0.03 0.02 0.02 0.02 0.02 0.03 0.03 0.02 0.01 0.01 0.01 0.01 0.02 0.02 0.03 0.03 0.03 0.03 0.03 0.03 0.03 0.05 0.06 0.06
0.01 0.01 0.01 0.01 0.02 0.02 0.01 0.01 0.01 0.01 0.01 0.02 0.02 0.03 0.03 0.03 0.03 0.02 0.02 0.03 0.03 0.02 0.01 0.01 0.01 0.01 0.01 0.01 0.01 0.01 0.02 0.02 0.02 0.02 0.03 0.03 0.04 0.05
0.01 0.01 0.01 0.01 0.01 0.01 0.01 0.01 0.01 0.01 0.01 0.01 0.01 0.01 0.02 0.02 0.01 0.01 0.01 0.02 0.01 0.01 0.01 0.01 0.01 0.01 0.01 0.01 0.01 0.01 0.01 0.01 0.01 0.01 0.02 0.02 0.03 0.03
0.01 0.01 0.01 0.00 0.00 0.00 0.00 0.00 0.00 0.01 0.00 0.01 0.01 0.01 0.01 0.01 0.01 0.01 0.01 0.01 0.01 0.03 0.02 0.02 0.01 0.00 0.00 0.00 0.00 0.00 0.01 0.01 0.00 0.01 0.01 0.01 0.01 0.02
0.00 0.00 0.01 0.01 0.01 0.00 0.00 0.00 0.01 0.01 0.00 0.00 0.01 0.01 0.01 0.01 0.00 0.01 0.01 0.01 0.02 0.03 0.01 0.01 0.01 0.00 0.00 0.00 0.00 0.00 0.00 0.00 0.00 0.01 0.01 0.00 0.00 0.01
0.01 0.01 0.01 0.01 0.01 0.01 0.01 0.01 0.01 0.00 0.00 0.01 0.01 0.01 0.01 0.01 0.01 0.01 0.01 0.01 0.02 0.02 0.01 0.01 0.00 0.00 0.00 0.00 0.00 0.00 0.00 0.00 0.00 0.00 0.00 0.00 0.00 0.00
0.02 0.02 0.02 0.02 0.01 0.01 0.01 0.01 0.01 0.01 0.01 0.01 0.01 0.01 0.01 0.01 0.01 0.01 0.01 0.01 0.01 0.01 0.01 0.01 0.01 0.01 0.01 0.00 0.00 0.00 0.00 0.00 0.00 0.01 0.01 0.00 0.00 0.00
0.03 0.03 0.02 0.02 0.01 0.01 0.01 0.01 0.01 0.01 0.01 0.01 0.01 0.00 0.00 0.00 0.01 0.01 0.01 0.01 0.02 0.03 0.03 0.03 0.03 0.02 0.02 0.01 0.01 0.00 0.00 0.00 0.01 0.01 0.01 0.00 0.00 0.00
0.04 0.03 0.03 0.02 0.01 0.01 0.01 0.01 0.01 0.01 0.01 0.01 0.00 0.00 0.01 0.01 0.01 0.01 0.01 0.02 0.02 0.02 0.03 0.03 0.03 0.02 0.02 0.01 0.00 0.00 0.00 0.00 0.01 0.01 0.01 0.00 0.00 0.00
0.04 0.04 0.03 0.02 0.02 0.02 0.01 0.01 0.01 0.01 0.01 0.01 0.01 0.01 0.01 0.01 0.01 0.01 0.01 0.01 0.01 0.01 0.01 0.01 0.02 0.02 0.01 0.01 0.01 0.00 0.00 0.00 0.01 0.02 0.02 0.00 0.00 0.00
0.02 0.02 0.03 0.03 0.03 0.02 0.02 0.02 0.01 0.01 0.01 0.01 0.01 0.01 0.01 0.01 0.01 0.01 0.01 0.01 0.01 0.01 0.00 0.01 0.01 0.01 0.01 0.01 0.00 0.00 0.00 0.00 0.02 0.02 0.02 0.01 0.00 0.00
0.01 0.01 0.01 0.02 0.03 0.03 0.02 0.02 0.02 0.02 0.02 0.01 0.01 0.01 0.01 0.01 0.00 0.00 0.00 0.00 0.00 0.00 0.00 0.01 0.01 0.00 0.00 0.00 0.00 0.00 0.00 0.00 0.02 0.02 0.02 0.01 0.00 0.00
0.01 0.01 0.01 0.01 0.01 0.01 0.02 0.01 0.02 0.02 0.02 0.02 0.01 0.01 0.01 0.01 0.01 0.00 0.00 0.00 0.00 0.00 0.00 0.00 0.00 0.00 0.01 0.01 0.00 0.00 0.00 0.00 0.02 0.03 0.03 0.02 0.00 0.00
0.01 0.01 0.01 0.01 0.01 0.01 0.01 0.01 0.01 0.01 0.01 0.01 0.01 0.01 0.01 0.01 0.01 0.01 0.01 0.01 0.01 0.01 0.01 0.01 0.00 0.00 0.01 0.01 0.01 0.01 0.01 0.01 0.02 0.04 0.04 0.02 0.00 0.00
0.02 0.01 0.01 0.01 0.00 0.00 0.01 0.01 0.01 0.01 0.01 0.01 0.01 0.01 0.02 0.01 0.01 0.01 0.01 0.01 0.01 0.01 0.01 0.01 0.01 0.01 0.01 0.01 0.01 0.01 0.01 0.01 0.03 0.06 0.05 0.03 0.01 0.01
0.01 0.01 0.01 0.00 0.00 0.00 0.00 0.00 0.01 0.01 0.02 0.02 0.03 0.02 0.02 0.02 0.01 0.01 0.01 0.02 0.01 0.01 0.01 0.01 0.02 0.02 0.01 0.01 0.01 0.01 0.01 0.01 0.03 0.06 0.05 0.03 0.01 0.01
0.01 0.01 0.00 0.01 0.00 0.00 0.00 0.00 0.00 0.00 0.01 0.01 0.02 0.02 0.03 0.03 0.02 0.02 0.02 0.02 0.02 0.02 0.02 0.02 0.03 0.03 0.03 0.02 0.01 0.01 0.01 0.01 0.02 0.04 0.03 0.02 0.01 0.01
0.01 0.01 0.01 0.01 0.01 0.00 0.00 0.01 0.01 0.01 0.01 0.01 0.01 0.02 0.02 0.03 0.04 0.04 0.05 0.04 0.04 0.03 0.03 0.03 0.04 0.04 0.03 0.02 0.02 0.01 0.01 0.02 0.03 0.03 0.03 0.02 0.01 0.01
0.01 0.02 0.02 0.02 0.01 0.01 0.01 0.01 0.01 0.01 0.01 0.02 0.01 0.01 0.02 0.02 0.03 0.04 0.04 0.05 0.05 0.05 0.05 0.05 0.06 0.06 0.05 0.04 0.03 0.02 0.02 0.02 0.03 0.03 0.03 0.02 0.01 0.01
0.01 0.01 0.02 0.02 0.02 0.02 0.02 0.02 0.01 0.01 0.01 0.02 0.02 0.02 0.02 0.03 0.03 0.03 0.03 0.04 0.04 0.04 0.03 0.03 0.03 0.03 0.04 0.03 0.02 0.02 0.02 0.02 0.02 0.02 0.03 0.02 0.01 0.01
0.02 0.02 0.02 0.02 0.02 0.02 0.02 0.02 0.02 0.02 0.02 0.02 0.02 0.02 0.02 0.02 0.02 0.03 0.03 0.03 0.03 0.03 0.03 0.03 0.03 0.03 0.02 0.02 0.02 0.02 0.03 0.03 0.02 0.02 0.02 0.02 0.01 0.01
0.03 0.02 0.02 0.02 0.02 0.02 0.01 0.01 0.01 0.01 0.01 0.01 0.01 0.01 0.01 0.01 0.02 0.02 0.02 0.03 0.03 0.03 0.04 0.04 0.04 0.03 0.02 0.02 0.02 0.02 0.03 0.04 0.03 0.02 0.02 0.01 0.01 0.01
MSLP
1020.85 1021.10 1021.39 1021.68 1021.95 1022.19 1022.37 1022.49 1022.54 1022.55 1022.50 1022.43 1022.32 1022.19 1022.04 1021.87 1021.70 1021.51 1021.33 1021.17 1021.03 1020.93 1020.87 1020.83 1020.81 1020.79 1020.75 1020.68 1020.58 1020.42 1020.23 1020.01 1019.78 1019.54 1019.31 1019.09 1018.87 1018.65
1020.85 1021.05 1021.27 1021.49 1021.69 1021.87 1022.02 1022.12 1022.19 1022.22 1022.22 1022.20 1022.14 1022.05 1021.94 1021.79 1021.61 1021.42 1021.22 1021.04 1020.89 1020.78 1020.72 1020.70 1020.70 1020.72 1020.73 1020.71 1020.65 1020.55 1020.41 1020.25 1020.08 1019.91 1019.75 1019.61 1019.47 1019.32
1020.87 1021.03 1021.20 1021.37 1021.52 1021.66 1021.77 1021.86 1021.94 1022.00 1022.04 1022.06 1022.05 1022.01 1021.92 1021.79 1021.61 1021.41 1021.20 1021.00 1020.84 1020.72 1020.65 1020.64 1020.66 1020.70 1020.74 1020.75 1020.72 1020.66 1020.56 1020.43 1020.29 1020.17 1020.05 1019.96 1019.87 1019.78
1020.86 1021.01 1021.16 1021.30 1021.42 1021.52 1021.62 1021.71 1021.79 1021.87 1021.95 1022.01 1022.04 1022.04 1021.98 1021.87 1021.71 1021.51 1021.30 1021.09 1020.91 1020.79 1020.71 1020.70 1020.72 1020.77 1020.82 1020.85 1020.84 1020.79 1020.70 1020.58 1020.46 1020.34 1020.24 1020.15 1020.09 1020.02
1020.79 1020.95 1021.09 1021.22 1021.33 1021.43 1021.52 1021.61 1021.70 1021.81 1021.91 1022.00 1022.07 1022.10 1022.07 1021.99 1021.85 1021.67 1021.47 1021.27 1021.09 1020.96 1020.89 1020.87 1020.89 1020.94 1020.99 1021.02 1021.01 1020.96 1020.86 1020.74 1020.60 1020.47 1020.35 1020.25 1020.18 1020.12
1020.62 1020.79 1020.95 1021.08 1021.20 1021.30 1021.39 1021.49 1021.60 1021.71 1021.84 1021.95 1022.05 1022.11 1022.12 1022.07 1021.97 1021.82 1021.64 1021.46 1021.30 1021.18 1021.11 1021.10 1021.12 1021.17 1021.22 1021.24 1021.23 1021.16 1021.06 1020.92 1020.76 1020.60 1020.45 1020.33 1020.24 1020.16
1020.32 1020.51 1020.68 1020.83 1020.96 1021.08 1021.18 1021.29 1021.40 1021.53 1021.66 1021.79 1021.91 1022.00 1022.04 1022.03 1021.97 1021.86 1021.73 1021.59 1021.46 1021.37 1021.32 1021.32 1021.35 1021.40 1021.45 1021.47 1021.45 1021.39 1021.27 1021.12 1020.95 1020.77 1020.61 1020.46 1020.35 1020.26
1019.89 1020.10 1020.29 1020.46 1020.61 1020.73 1020.84 1020.95 1021.07 1021.19 1021.33 1021.47 1021.60 1021.71 1021.79 1021.82 1021.81 1021.75 1021.67 1021.58 1021.51 1021.45 1021.43 1021.45 1021.50 1021.56 1021.62 1021.65 1021.65 1021.59 1021.50 1021.36 1021.19 1021.02 1020.85 1020.71 1020.59 1020.50
1019.37 1019.59 1019.79 1019.97 1020.13 1020.26 1020.37 1020.48 1020.59 1020.71 1020.83 1020.97 1021.11 1021.24 1021.35 1021.43 1021.47 1021.47 1021.45 1021.42 1021.40 1021.39 1021.41 1021.46 1021.53 1021.61 1021.69 1021.75 1021.78 1021.76 1021.70 1021.60 1021.47 1021.33 1021.20 1021.07 1020.97 1020.90
1018.79 1019.01 1019.22 1019.40 1019.57 1019.70 1019.81 1019.91 1020.00 1020.11 1020.23 1020.36 1020.50 1020.64 1020.77 1020.89 1020.97 1021.03 1021.07 1021.10 1021.13 1021.17 1021.23 1021.31 1021.42 1021.53 1021.64 1021.74 1021.81 1021.85 1021.85 1021.81 1021.75 1021.68 1021.60 1021.53 1021.47 1021.43
1018.20 1018.42 1018.63 1018.82 1018.99 1019.12 1019.22 1019.30 1019.38 1019.47 1019.57 1019.69 1019.83 1019.98 1020.13 1020.27 1020.39 1020.50 1020.59 1020.67 1020.74 1020.82 1020.92 1021.03 1021.16 1021.31 1021.45 1021.59 1021.72 1021.82 1021.89 1021.94 1021.96 1021.97 1021.97 1021.97 1021.97 1021.98
1017.62 1017.85 1018.07 1018.27 1018.43 1018.56 1018.65 1018.72 1018.79 1018.86 1018.94 1019.05 1019.18 1019.32 1019.48 1019.64 1019.79 1019.93 1020.05 1020.16 1020.27 1020.38 1020.50 1020.63 1020.79 1020.96 1021.13 1021.31 1021.49 1021.65 1021.79 1021.92 1022.03 1022.13 1022.21 1022.29 1022.36 1022.43
1017.07 1017.31 1017.55 1017.75 1017.92 1018.05 1018.13 1018.19 1018.24 1018.30 1018.36 1018.45 1018.57 1018.72 1018.88 1019.04 1019.20 1019.36 1019.50 1019.62 1019.75 1019.87 1020.00 1020.15 1020.31 1020.49 1020.68 1020.89 1021.10 1021.31 1021.51 1021.70 1021.88 1022.05 1022.21 1022.36 1022.50 1022.63
1016.50 1016.77 1017.03 1017.25 1017.43 1017.55 1017.64 1017.69 1017.73 1017.77 1017.83 1017.91 1018.02 1018.15 1018.31 1018.47 1018.63 1018.79 1018.93 1019.06 1019.18 1019.30 1019.43 1019.57 1019.73 1019.91 1020.10 1020.31 1020.54 1020.77 1021.00 1021.23 1021.46 1021.68 1021.90 1022.11 1022.30 1022.48
1015.88 1016.18 1016.46 1016.70 1016.89 1017.02 1017.11 1017.16 1017.19 1017.23 1017.28 1017.36 1017.46 1017.59 1017.73 1017.89 1018.04 1018.19 1018.33 1018.45 1018.56 1018.67 1018.78 1018.90 1019.04 1019.21 1019.39 1019.59 1019.80 1020.03 1020.27 1020.51 1020.75 1021.00 1021.24 1021.49 1021.72 1021.95
1015.15 1015.48 1015.78 1016.03 1016.23 1016.37 1016.46 1016.51 1016.55 1016.59 1016.64 1016.72 1016.82 1016.95 1017.09 1017.24 1017.38 1017.52 1017.64 1017.75 1017.84 1017.93 1018.03 1018.13 1018.25 1018.38 1018.54 1018.71 1018.91 1019.11 1019.33 1019.56 1019.79 1020.03 1020.28 1020.54 1020.79 1021.05
1014.29 1014.63 1014.94 1015.19 1015.39 1015.53 1015.62 1015.68 1015.73 1015.78 1015.84 1015.92 1016.03 1016.17 1016.31 1016.45 1016.59 1016.72 1016.83 1016.92 1017.00 1017.07 1017.15 1017.23 1017.33 1017.44 1017.57 1017.72 1017.88 1018.05 1018.24 1018.44 1018.65 1018.87 1019.10 1019.35 1019.61 1019.89
1013.28 1013.63 1013.92 1014.16 1014.34 1014.47 1014.56 1014.63 1014.68 1014.75 1014.83 1014.93 1015.06 1015.20 1015.35 1015.50 1015.63 1015.75 1015.85 1015.94 1016.01 1016.07 1016.13 1016.20 1016.29 1016.39 1016.50 1016.62 1016.76 1016.91 1017.06 1017.23 1017.41 1017.61 1017.82 1018.06 1018.32 1018.60
1012.19 1012.50 1012.76 1012.97 1013.13 1013.24 1013.32 1013.39 1013.45 1013.53 1013.64 1013.76 1013.91 1014.07 1014.23 1014.39 1014.53 1014.64 1014.74 1014.81 1014.88 1014.93 1014.99 1015.06 1015.14 1015.24 1015.35 1015.47 1015.60 1015.73 1015.88 1016.03 1016.19 1016.37 1016.57 1016.79 1017.05 1017.33
1011.08 1011.33 1011.54 1011.70 1011.82 1011.90 1011.97 1012.03 1012.11 1012.21 1012.33 1012.48 1012.65 1012.83 1013.01 1013.17 1013.31 1013.43 1013.52 1013.59 1013.64 1013.70 1013.76 1013.83 1013.93 1014.03 1014.15 1014.29 1014.43 1014.57 1014.72 1014.87 1015.04 1015.22 1015.41 1015.64 1015.89 1016.18
1010.03 1010.22 1010.36 1010.46 1010.53 1010.58 1010.62 1010.68 1010.76 1010.88 1011.02 1011.20 1011.39 1011.58 1011.76 1011.93 1012.07 1012.17 1012.25 1012.31 1012.36 1012.41 1012.47 1012.56 1012.66 1012.78 1012.93 1013.09 1013.26 1013.43 1013.61 1013.79 1013.98 1014.18 1014.40 1014.64 1014.91 1015.20
1009.14 1009.24 1009.31 1009.34 1009.36 1009.37 1009.40 1009.45 1009.53 1009.66 1009.82 1010.01 1010.21 1010.41 1010.59 1010.75 1010.87 1010.96 1011.02 1011.05 1011.08 1011.12 1011.18 1011.26 1011.37 1011.51 1011.68 1011.88 1012.09 1012.31 1012.54 1012.76 1013.00 1013.24 1013.49 1013.76 1014.06 1014.38
1008.44 1008.47 1008.46 1008.43 1008.40 1008.38 1008.39 1008.43 1008.51 1008.64 1008.81 1009.00 1009.21 1009.40 1009.57 1009.70 1009.79 1009.84 1009.87 1009.87 1009.86 1009.87 1009.90 1009.97 1010.08 1010.23 1010.42 1010.64 1010.90 1011.16 1011.44 1011.73 1012.02 1012.32 1012.63 1012.95 1013.29 1013.65
Thickness
5648 5646 5644 5642 5640 5638 5636 5634 5630 5625 5624 5626 5626 5628 5628 5628 5628 5628 5628 5628 5628 5629 5630 5630 5631 5630 5630 5630 5630 5629 5629 5628 5628 5627 5627 5626 5626 5626
5646 5644 5642 5640 5638 5637 5635 5632 5630 5627 5623 5623 5623 5624 5624 5624 5624 5623 5623 5623 5623 5624 5624 5624 5624 5624 5624 5624 5624 5623 5623 5622 5622 5621 5620 5619 5619 5619
5644 5642 5640 5638 5636 5634 5632 5629 5627 5625 5622 5620 5619 5619 5620 5620 5619 5619 5619 5618 5618 5618 5619 5619 5619 5618 5618 5618 5618 5617 5617 5616 5616 5615 5614 5614 5613 5613
5641 5639 5637 5636 5633 5631 5629 5627 5625 5623 5621 5617 5615 5615 5615 5615 5615 5614 5614 5614 5613 5613 5613 5613 5613 5613 5612 5612 5611 5611 5610 5610 5609 5608 5608 5607 5607 5607
5639 5637 5635 5633 5631 5628 5626 5624 5622 5621 5618 5615 5612 5611 5610 5610 5609 5609 5609 5609 5608 5608 5608 5608 5607 5607 5606 5606 5605 5605 5604 5604 5603 5602 5601 5601 5600 5600
5637 5635 5633 5631 5630 5627 5625 5622 5619 5616 5613 5611 5608 5606 5605 5605 5604 5603 5603 5602 5602 5603 5602 5602 5601 5601 5601 5600 5600 5599 5598 5598 5597 5596 5596 5595 5594 5593
5633 5632 5631 5630 5629 5626 5624 5620 5617 5613 5610 5607 5604 5602 5601 5600 5600 5599 5598 5596 5596 5596 5596 5596 5596 5595 5595 5595 5594 5594 5593 5592 5591 5591 5590 5589 5588 5587
5629 5627 5627 5626 5625 5624 5622 5620 5617 5613 5609 5605 5602 5600 5599 5598 5596 5595 5592 5590 5590 5591 5590 5590 5590 5589 5589 5589 5589 5588 5588 5587 5586 5585 5584 5583 5582 5581
5624 5622 5622 5622 5621 5619 5617 5616 5614 5612 5611 5607 5603 5601 5599 5597 5594 5591 5588 5587 5586 5586 5584 5584 5583 5583 5584 5583 5583 5583 5582 5581 5580 5579 5579 5577 5576 5575
5619 5618 5616 5616 5615 5614 5611 5609 5607 5607 5606 5604 5603 5602 5599 5597 5594 5591 5587 5583 5580 5580 5579 5578 5577 5577 5578 5578 5578 5577 5577 5576 5575 5574 5573 5572 5570 5569
5612 5612 5611 5610 5611 5609 5605 5602 5600 5600 5601 5600 5599 5597 5595 5592 5589 5584 5580 5577 5575 5574 5573 5572 5572 5571 5572 5573 5573 5572 5571 5571 5570 5568 5567 5566 5565 5563
5605 5605 5605 5604 5604 5603 5600 5598 5595 5595 5594 5593 5592 5591 5589 5586 5584 5582 5579 5574 5571 5569 5568 5566 5565 5564 5565 5567 5567 5566 5566 5565 5564 5563 5562 5561 5559 5557
5598 5597 5598 5598 5598 5597 5595 5593 5592 5591 5588 5586 5584 5583 5581 5579 5578 5576 5574 5572 5569 5567 5566 5562 5560 5557 5558 5559 5560 5560 5560 5559 5559 5558 5556 5555 5553 5551
5591 5591 5591 5591 5591 5589 5588 5587 5586 5583 5580 5578 5576 5575 5574 5573 5572 5570 5569 5567 5566 5565 5562 5559 5557 5554 5552 5552 5553 5553 5553 5552 5552 5551 5550 5549 5547 5545
5585 5585 5584 5583 5582 5580 5580 5578 5576 5574 5571 5570 5569 5569 5568 5567 5565 5563 5561 5559 5558 5557 5556 5554 5553 5550 5548 5548 5547 5546 5546 5546 5545 5545 5543 5542 5541 5539
5576 5576 5575 5574 5572 5571 5570 5568 5566 5565 5564 5563 5562 5561 5559 5557 5556 5554 5553 5551 5549 5549 5548 5548 5546 5545 5543 5542 5541 5541 5540 5539 5540 5538 5537 5536 5535 5534
5566 5564 5563 5561 5560 5559 5558 5557 5556 5555 5554 5553 5552 5551 5550 5548 5547 5546 5544 5543 5542 5542 5541 5539 5538 5537 5536 5535 5534 5535 5534 5533 5533 5531 5529 5530 5530 5529
5556 5554 5553 5552 5551 5550 5549 5547 5546 5545 5545 5544 5543 5542 5541 5540 5539 5537 5536 5535 5535 5535 5534 5532 5529 5528 5527 5528 5530 5530 5529 5528 5527 5524 5523 5523 5525 5525
5546 5545 5544 5543 5542 5541 5540 5539 5538 5538 5537 5536 5535 5534 5533 5532 5530 5529 5528 5527 5527 5528 5527 5525 5523 5522 5522 5526 5527 5525 5524 5523 5520 5519 5518 5519 5520 5521
5536 5535 5534 5534 5533 5532 5532 5531 5530 5529 5527 5527 5526 5525 5524 5523 5522 5521 5521 5520 5520 5520 5519 5518 5517 5518 5519 5520 5520 5519 5518 5517 5515 5514 5514 5513 5513 5513
5526 5525 5525 5525 5524 5523 5523 5523 5522 5521 5520 5518 5517 5516 5515 5514 5514 5513 5513 5513 5512 5512 5513 5513 5514 5512 5510 5509 5509 5512 5512 5511 5511 5509 5508 5506 5505 5505
5517 5516 5516 5515 5515 5515 5514 5513 5513 5512 5511 5510 5509 5508 5507 5506 5506 5505 5505 5504 5504 5505 5506 5506 5505 5503 5501 5502 5504 5505 5504 5503 5503 5502 5502 5502 5500 5501
5507 5507 5507 5506 5506 5505 5504 5504 5503 5503 5502 5501 5500 5499 5499 5498 5498 5497 5497 5496 5497 5497 5497 5496 5495 5494 5495 5495 5495 5495 5495 5494 5493 5494 5495 5495 5494 5495